^^
Datos históricos de la estación: Murcia-Puente Tocinos
Diario Informe para Abril 22, 2017 Unidades:  Métrico    Inglés   Ambas
« Anterior Día
Siguiente Día »
Diario Semanal Mensual Anual Configurable
  Máximo: Mínimo: Media:
Temperatura: 18.3 °C 11.6 °C 14.9 °C
Punto de rocio: 9.5 °C 6.2 °C 7.5 °C
Humedad: 75% 48% 62%
Velocidad viento: 18.0km/h 2.3km/h 8.5km/h
Racha viento: 56.5km/h - -
Viento- - ESE
Presión: 1026.0 hPa 1018.8 hPa -
Precipitación: 0.0 mm    
Historical Graphs
 
 
Tabla de datos para Abril 22, 2017
Hora Temperatura Punto de rocio Presión Viento Velocidad viento Racha viento Humedad Intensidad lluvia(por hora) Nubes
00:00 13.4 °C 8.1 °C 1026.0 hPa NNE 8.7 km/h 56.5 km/h 70% 0.0 mm
00:06 13.3 °C 8.2 °C 1025.6 hPa NNE 8.7 km/h 56.5 km/h 71% 0.0 mm
00:11 13.3 °C 8.2 °C 1025.6 hPa NNE 8.7 km/h 56.5 km/h 71% 0.0 mm
00:16 13.3 °C 8.2 °C 1025.6 hPa NNE 8.7 km/h 56.5 km/h 71% 0.0 mm FEW
00:21 13.3 °C 8.2 °C 1025.6 hPa North 9.5 km/h 56.5 km/h 71% 0.0 mm FEW
00:26 13.3 °C 8.2 °C 1025.6 hPa NNE 9.5 km/h 56.5 km/h 71% 0.0 mm FEW
00:31 13.3 °C 8.2 °C 1025.6 hPa NNE 7.6 km/h 56.5 km/h 71% 0.0 mm FEW
00:36 13.3 °C 7.9 °C 1025.6 hPa NNE 7.6 km/h 56.5 km/h 70% 0.0 mm FEW
00:41 13.3 °C 7.9 °C 1025.6 hPa NNE 7.6 km/h 56.5 km/h 70% 0.0 mm FEW
00:46 13.2 °C 7.8 °C 1025.6 hPa NNE 7.6 km/h 56.5 km/h 70% 0.0 mm FEW
00:51 13.2 °C 7.8 °C 1025.6 hPa NNW 6.9 km/h 56.5 km/h 70% 0.0 mm FEW
00:56 13.2 °C 7.8 °C 1025.6 hPa NNE 6.9 km/h 56.5 km/h 70% 0.0 mm FEW
01:01 13.3 °C 7.7 °C 1025.6 hPa NNE 5.0 km/h 56.5 km/h 69% 0.0 mm FEW
01:06 13.3 °C 7.5 °C 1026.0 hPa North 5.0 km/h 56.5 km/h 68% 0.0 mm FEW
01:11 13.3 °C 7.5 °C 1026.0 hPa NE 6.4 km/h 56.5 km/h 68% 0.0 mm FEW
01:16 13.3 °C 7.3 °C 1026.0 hPa NNE 6.4 km/h 56.5 km/h 67% 0.0 mm FEW
01:21 13.3 °C 7.3 °C 1026.0 hPa North 6.4 km/h 56.5 km/h 67% 0.0 mm FEW
01:26 13.3 °C 7.3 °C 1026.0 hPa North 6.4 km/h 56.5 km/h 67% 0.0 mm FEW
01:31 13.3 °C 7.3 °C 1026.0 hPa NNW 3.9 km/h 56.5 km/h 67% 0.0 mm FEW
01:36 13.3 °C 7.3 °C 1026.0 hPa NW 3.9 km/h 56.5 km/h 67% 0.0 mm FEW
01:41 13.3 °C 7.3 °C 1026.0 hPa NW 3.2 km/h 56.5 km/h 67% 0.0 mm FEW
01:46 13.3 °C 7.1 °C 1026.0 hPa NNE 3.2 km/h 56.5 km/h 66% 0.0 mm FEW
01:51 13.3 °C 7.1 °C 1026.0 hPa NNE 3.9 km/h 56.5 km/h 66% 0.0 mm FEW
01:56 13.3 °C 7.1 °C 1026.0 hPa NNE 3.9 km/h 56.5 km/h 66% 0.0 mm FEW
02:01 13.2 °C 7.0 °C 1026.0 hPa North 6.4 km/h 56.5 km/h 66% 0.0 mm FEW
02:06 13.2 °C 7.0 °C 1025.6 hPa North 6.4 km/h 56.5 km/h 66% 0.0 mm FEW
02:11 13.1 °C 6.9 °C 1025.6 hPa North 6.4 km/h 56.5 km/h 66% 0.0 mm FEW
02:16 13.0 °C 7.0 °C 1025.6 hPa North 6.4 km/h 56.5 km/h 67% 0.0 mm CLR
02:21 12.9 °C 6.9 °C 1025.3 hPa NE 4.7 km/h 56.5 km/h 67% 0.0 mm CLR
02:26 12.9 °C 6.9 °C 1025.3 hPa NNW 4.7 km/h 56.5 km/h 67% 0.0 mm CLR
02:31 12.8 °C 6.8 °C 1025.3 hPa NNW 2.9 km/h 56.5 km/h 67% 0.0 mm CLR
02:36 12.8 °C 6.8 °C 1024.9 hPa ENE 2.9 km/h 56.5 km/h 67% 0.0 mm CLR
02:41 12.7 °C 6.9 °C 1024.9 hPa East 2.9 km/h 56.5 km/h 68% 0.0 mm CLR
02:46 12.6 °C 6.8 °C 1024.9 hPa East 2.9 km/h 56.5 km/h 68% 0.0 mm CLR
02:51 12.6 °C 6.8 °C 1024.9 hPa NW 2.9 km/h 56.5 km/h 68% 0.0 mm CLR
02:56 12.6 °C 6.8 °C 1024.9 hPa NNW 2.9 km/h 56.5 km/h 68% 0.0 mm FEW
03:01 12.5 °C 6.8 °C 1024.9 hPa WSW 2.9 km/h 56.5 km/h 68% 0.0 mm CLR
03:06 12.5 °C 6.8 °C 1024.9 hPa WSW 2.9 km/h 56.5 km/h 68% 0.0 mm CLR
03:11 12.5 °C 6.8 °C 1024.9 hPa West 2.9 km/h 56.5 km/h 68% 0.0 mm CLR
03:16 12.5 °C 6.6 °C 1024.9 hPa SW 3.2 km/h 56.5 km/h 67% 0.0 mm CLR
03:21 12.6 °C 6.6 °C 1024.6 hPa SW 3.2 km/h 56.5 km/h 67% 0.0 mm CLR
03:26 12.6 °C 6.6 °C 1024.6 hPa SW 3.2 km/h 56.5 km/h 67% 0.0 mm FEW
03:31 12.6 °C 6.6 °C 1024.6 hPa NW 3.2 km/h 56.5 km/h 67% 0.0 mm FEW
03:36 12.6 °C 6.6 °C 1024.6 hPa WSW 3.2 km/h 56.5 km/h 67% 0.0 mm FEW
03:41 12.6 °C 6.6 °C 1024.6 hPa WSW 2.9 km/h 56.5 km/h 67% 0.0 mm CLR
03:46 12.6 °C 6.6 °C 1024.6 hPa WSW 2.3 km/h 56.5 km/h 67% 0.0 mm FEW
03:51 12.6 °C 6.6 °C 1024.6 hPa West 2.3 km/h 56.5 km/h 67% 0.0 mm FEW
03:56 12.6 °C 6.6 °C 1024.6 hPa SSE 2.9 km/h 56.5 km/h 67% 0.0 mm CLR
04:01 12.6 °C 6.8 °C 1024.6 hPa ESE 2.9 km/h 56.5 km/h 68% 0.0 mm CLR
04:06 12.4 °C 6.9 °C 1024.3 hPa South 2.9 km/h 56.5 km/h 69% 0.0 mm CLR
04:11 12.4 °C 6.9 °C 1024.3 hPa SSE 4.7 km/h 56.5 km/h 69% 0.0 mm CLR
04:16 12.4 °C 6.7 °C 1024.3 hPa NNE 2.9 km/h 56.5 km/h 68% 0.0 mm CLR
04:21 12.4 °C 6.7 °C 1024.3 hPa NE 2.9 km/h 56.5 km/h 68% 0.0 mm CLR
04:26 12.4 °C 6.7 °C 1024.3 hPa NNW 2.9 km/h 56.5 km/h 68% 0.0 mm CLR
04:31 12.4 °C 6.7 °C 1024.3 hPa NNW 2.9 km/h 56.5 km/h 68% 0.0 mm FEW
04:36 12.3 °C 6.6 °C 1023.9 hPa NNW 2.9 km/h 56.5 km/h 68% 0.0 mm FEW
04:41 12.3 °C 6.6 °C 1023.9 hPa NNW 2.3 km/h 56.5 km/h 68% 0.0 mm FEW
04:46 12.3 °C 6.6 °C 1023.9 hPa ESE 2.3 km/h 56.5 km/h 68% 0.0 mm FEW
04:51 12.3 °C 6.6 °C 1023.9 hPa South 2.3 km/h 56.5 km/h 68% 0.0 mm FEW
04:56 12.3 °C 6.8 °C 1023.9 hPa SSW 4.7 km/h 56.5 km/h 69% 0.0 mm CLR
05:01 12.2 °C 6.7 °C 1023.9 hPa SSW 4.7 km/h 56.5 km/h 69% 0.0 mm CLR
05:06 12.2 °C 6.7 °C 1023.9 hPa SSW 4.7 km/h 56.5 km/h 69% 0.0 mm FEW
05:11 12.2 °C 6.7 °C 1023.9 hPa SSW 4.7 km/h 56.5 km/h 69% 0.0 mm FEW
05:16 12.2 °C 6.7 °C 1023.9 hPa South 4.7 km/h 56.5 km/h 69% 0.0 mm FEW
05:21 12.2 °C 6.7 °C 1023.9 hPa SW 7.6 km/h 56.5 km/h 69% 0.0 mm FEW
05:26 12.2 °C 6.7 °C 1023.9 hPa SW 6.9 km/h 56.5 km/h 69% 0.0 mm FEW
05:31 12.3 °C 6.8 °C 1023.9 hPa South 6.9 km/h 56.5 km/h 69% 0.0 mm FEW
05:36 12.3 °C 6.6 °C 1023.9 hPa SSE 5.8 km/h 56.5 km/h 68% 0.0 mm CLR
05:41 12.3 °C 6.6 °C 1023.9 hPa SSW 5.8 km/h 56.5 km/h 68% 0.0 mm CLR
05:46 12.3 °C 6.6 °C 1023.9 hPa SSW 5.0 km/h 56.5 km/h 68% 0.0 mm
05:51 12.3 °C 6.6 °C 1023.6 hPa South 5.0 km/h 56.5 km/h 68% 0.0 mm
05:56 12.4 °C 6.7 °C 1023.6 hPa SSW 5.0 km/h 56.5 km/h 68% 0.0 mm
06:01 12.4 °C 6.7 °C 1023.6 hPa SW 5.0 km/h 56.5 km/h 68% 0.0 mm
06:06 12.4 °C 6.4 °C 1023.6 hPa WSW 5.0 km/h 56.5 km/h 67% 0.0 mm
06:11 12.4 °C 6.4 °C 1023.6 hPa West 5.0 km/h 56.5 km/h 67% 0.0 mm
06:16 12.4 °C 6.4 °C 1023.6 hPa SW 4.7 km/h 56.5 km/h 67% 0.0 mm
06:21 12.3 °C 6.3 °C 1023.6 hPa WSW 4.7 km/h 56.5 km/h 67% 0.0 mm
06:26 12.3 °C 6.3 °C 1023.6 hPa WSW 3.9 km/h 56.5 km/h 67% 0.0 mm
06:31 12.3 °C 6.3 °C 1023.6 hPa WSW 3.9 km/h 56.5 km/h 67% 0.0 mm
06:36 12.3 °C 6.3 °C 1023.6 hPa SW 3.9 km/h 56.5 km/h 67% 0.0 mm
06:41 12.3 °C 6.3 °C 1023.6 hPa SSW 3.9 km/h 56.5 km/h 67% 0.0 mm
06:46 12.3 °C 6.3 °C 1023.6 hPa SW 3.9 km/h 56.5 km/h 67% 0.0 mm
06:51 12.3 °C 6.3 °C 1023.6 hPa SW 3.9 km/h 56.5 km/h 67% 0.0 mm
06:56 12.2 °C 6.2 °C 1023.6 hPa SW 2.9 km/h 56.5 km/h 67% 0.0 mm
07:01 12.3 °C 6.3 °C 1023.6 hPa SW 2.9 km/h 56.5 km/h 67% 0.0 mm
07:06 12.3 °C 6.3 °C 1023.6 hPa SW 2.9 km/h 56.5 km/h 67% 0.0 mm
07:11 12.3 °C 6.8 °C 1023.6 hPa SSE 2.9 km/h 56.5 km/h 69% 0.0 mm
07:12 12.3 °C 6.8 °C 1023.6 hPa SSE 2.9 km/h 56.5 km/h 69% 0.0 mm
07:17 12.2 °C 6.7 °C 1023.6 hPa SSE 3.9 km/h 56.5 km/h 69% 0.0 mm
07:22 11.9 °C 6.6 °C 1023.6 hPa SE 3.9 km/h 56.5 km/h 70% 0.0 mm
07:27 11.8 °C 6.5 °C 1023.6 hPa SSE 5.8 km/h 56.5 km/h 70% 0.0 mm
07:32 11.7 °C 6.6 °C 1023.6 hPa South 5.8 km/h 56.5 km/h 71% 0.0 mm
07:37 11.7 °C 6.6 °C 1023.6 hPa SSE 6.4 km/h 56.5 km/h 71% 0.0 mm
07:42 11.6 °C 6.5 °C 1023.6 hPa SSE 6.4 km/h 56.5 km/h 71% 0.0 mm
07:47 11.7 °C 6.6 °C 1023.6 hPa SW 6.9 km/h 56.5 km/h 71% 0.0 mm
07:52 11.8 °C 6.5 °C 1023.9 hPa South 6.9 km/h 56.5 km/h 70% 0.0 mm
07:57 11.9 °C 6.6 °C 1023.9 hPa South 6.9 km/h 56.5 km/h 70% 0.0 mm
08:02 12.0 °C 6.5 °C 1023.9 hPa South 6.9 km/h 56.5 km/h 69% 0.0 mm
08:07 12.1 °C 6.6 °C 1023.9 hPa SSW 6.4 km/h 56.5 km/h 69% 0.0 mm
08:12 12.1 °C 6.4 °C 1023.9 hPa South 6.4 km/h 56.5 km/h 68% 0.0 mm
08:17 12.2 °C 6.4 °C 1023.9 hPa South 5.0 km/h 56.5 km/h 68% 0.0 mm
08:22 12.3 °C 6.6 °C 1024.3 hPa SSW 5.0 km/h 56.5 km/h 68% 0.0 mm
08:27 12.3 °C 6.3 °C 1024.3 hPa South 5.8 km/h 56.5 km/h 67% 0.0 mm
08:32 12.4 °C 6.4 °C 1024.3 hPa SSW 5.8 km/h 56.5 km/h 67% 0.0 mm
08:37 12.6 °C 6.4 °C 1024.3 hPa South 6.4 km/h 56.5 km/h 66% 0.0 mm
08:42 12.6 °C 6.4 °C 1024.3 hPa WSW 6.4 km/h 56.5 km/h 66% 0.0 mm
08:47 12.7 °C 6.5 °C 1024.3 hPa SSW 5.0 km/h 56.5 km/h 66% 0.0 mm
08:52 12.7 °C 6.5 °C 1024.3 hPa SSW 5.0 km/h 56.5 km/h 66% 0.0 mm
08:57 12.8 °C 6.6 °C 1024.3 hPa SSE 5.0 km/h 56.5 km/h 66% 0.0 mm
09:02 12.9 °C 6.5 °C 1024.3 hPa SW 5.0 km/h 56.5 km/h 65% 0.0 mm
09:07 12.9 °C 6.2 °C 1024.3 hPa SSW 6.4 km/h 56.5 km/h 64% 0.0 mm
09:12 12.9 °C 6.2 °C 1024.3 hPa SSW 6.4 km/h 56.5 km/h 64% 0.0 mm BKN
09:17 13.1 °C 6.4 °C 1024.3 hPa South 6.9 km/h 56.5 km/h 64% 0.0 mm FEW
09:19 13.1 °C 6.4 °C 1024.3 hPa SSW 6.9 km/h 56.5 km/h 64% 0.0 mm SCT
09:24 13.2 °C 6.6 °C 1024.3 hPa SW 6.9 km/h 56.5 km/h 64% 0.0 mm FEW
09:29 13.4 °C 6.5 °C 1024.3 hPa SW 6.4 km/h 56.5 km/h 63% 0.0 mm SCT
09:34 13.5 °C 6.3 °C 1024.3 hPa WSW 6.4 km/h 56.5 km/h 62% 0.0 mm FEW
09:39 13.7 °C 6.6 °C 1024.3 hPa WSW 4.7 km/h 56.5 km/h 62% 0.0 mm SCT
09:40 13.7 °C 6.6 °C 1024.3 hPa WSW 4.7 km/h 56.5 km/h 62% 0.0 mm SCT
09:45 13.9 °C 6.7 °C 1024.3 hPa NW 4.7 km/h 56.5 km/h 62% 0.0 mm FEW
09:50 14.3 °C 6.9 °C 1024.3 hPa ESE 3.2 km/h 56.5 km/h 61% 0.0 mm FEW
09:55 14.7 °C 7.0 °C 1024.3 hPa WNW 3.2 km/h 56.5 km/h 60% 0.0 mm FEW
10:00 14.7 °C 6.8 °C 1024.3 hPa NE 3.9 km/h 56.5 km/h 59% 0.0 mm FEW
10:05 14.9 °C 6.9 °C 1024.3 hPa WNW 3.9 km/h 56.5 km/h 59% 0.0 mm FEW
10:10 15.1 °C 6.9 °C 1024.3 hPa NW 3.9 km/h 56.5 km/h 58% 0.0 mm FEW
10:15 15.3 °C 6.8 °C 1024.3 hPa NNW 3.9 km/h 56.5 km/h 57% 0.0 mm FEW
10:20 15.2 °C 7.0 °C 1023.9 hPa North 4.7 km/h 56.5 km/h 58% 0.0 mm FEW
10:25 15.2 °C 7.2 °C 1023.9 hPa NE 4.7 km/h 56.5 km/h 59% 0.0 mm FEW
10:30 15.2 °C 7.0 °C 1023.9 hPa NE 5.0 km/h 56.5 km/h 58% 0.0 mm FEW
10:35 15.3 °C 7.1 °C 1023.9 hPa NE 5.0 km/h 56.5 km/h 58% 0.0 mm FEW
10:40 15.4 °C 6.9 °C 1023.9 hPa NE 8.7 km/h 56.5 km/h 57% 0.0 mm FEW
10:45 15.4 °C 6.9 °C 1023.9 hPa NE 8.7 km/h 56.5 km/h 57% 0.0 mm FEW
10:50 15.4 °C 6.9 °C 1023.9 hPa NE 15.6 km/h 56.5 km/h 57% 0.0 mm FEW
10:55 15.6 °C 6.8 °C 1023.9 hPa NE 15.6 km/h 56.5 km/h 56% 0.0 mm FEW
11:00 15.8 °C 6.8 °C 1023.9 hPa NNE 18.0 km/h 56.5 km/h 55% 0.0 mm FEW
11:05 15.9 °C 6.9 °C 1023.9 hPa NNE 18.0 km/h 56.5 km/h 55% 0.0 mm FEW
11:10 15.9 °C 6.9 °C 1023.9 hPa ENE 14.8 km/h 56.5 km/h 55% 0.0 mm FEW
11:15 15.9 °C 6.9 °C 1023.9 hPa NNE 14.8 km/h 56.5 km/h 55% 0.0 mm
11:20 16.0 °C 6.9 °C 1023.9 hPa NNE 15.6 km/h 56.5 km/h 55% 0.0 mm
11:25 16.0 °C 6.9 °C 1023.9 hPa NNE 15.6 km/h 56.5 km/h 55% 0.0 mm
11:30 16.4 °C 7.3 °C 1023.9 hPa West 16.4 km/h 56.5 km/h 55% 0.0 mm
11:35 16.4 °C 7.1 °C 1023.6 hPa NNE 16.4 km/h 56.5 km/h 54% 0.0 mm
11:41 16.3 °C 6.9 °C 1023.6 hPa NNE 15.6 km/h 37.0 km/h 54% 0.0 mm CLR
11:45 16.3 °C 6.9 °C 1023.6 hPa NNE 15.6 km/h 37.0 km/h 54% 0.0 mm
11:50 16.5 °C 7.4 °C 1023.6 hPa NE 18.0 km/h 37.0 km/h 55% 0.0 mm
11:55 16.5 °C 7.2 °C 1023.6 hPa NE 18.0 km/h 37.0 km/h 54% 0.0 mm
12:06 16.5 °C 7.2 °C 1023.6 hPa North 17.2 km/h 37.0 km/h 54% 0.0 mm
12:11 16.4 °C 7.1 °C 1023.6 hPa NNE 16.1 km/h 37.0 km/h 54% 0.0 mm
12:16 16.6 °C 7.2 °C 1023.6 hPa North 16.1 km/h 37.0 km/h 54% 0.0 mm
12:21 16.8 °C 7.2 °C 1023.2 hPa North 14.0 km/h 37.0 km/h 53% 0.0 mm
12:26 16.9 °C 7.0 °C 1023.2 hPa NNE 14.0 km/h 37.0 km/h 52% 0.0 mm
12:31 17.2 °C 7.3 °C 1023.2 hPa East 17.2 km/h 37.0 km/h 52% 0.0 mm
12:36 17.6 °C 7.1 °C 1023.2 hPa ENE 17.2 km/h 37.0 km/h 50% 0.0 mm
12:41 17.8 °C 6.6 °C 1023.2 hPa NE 12.2 km/h 37.0 km/h 48% 0.0 mm
12:46 17.5 °C 6.7 °C 1023.2 hPa NE 12.2 km/h 37.0 km/h 49% 0.0 mm
12:51 17.1 °C 6.6 °C 1023.2 hPa North 14.0 km/h 37.0 km/h 50% 0.0 mm
12:56 16.9 °C 6.4 °C 1023.2 hPa NE 14.0 km/h 37.0 km/h 50% 0.0 mm
13:01 17.0 °C 6.5 °C 1023.2 hPa NE 15.6 km/h 37.0 km/h 50% 0.0 mm
13:06 17.1 °C 6.6 °C 1022.9 hPa ENE 14.0 km/h 37.0 km/h 50% 0.0 mm
13:11 17.1 °C 6.9 °C 1022.9 hPa East 14.0 km/h 37.0 km/h 51% 0.0 mm
13:16 17.1 °C 6.6 °C 1022.9 hPa ENE 14.0 km/h 37.0 km/h 50% 0.0 mm
13:21 17.1 °C 6.6 °C 1022.9 hPa NNE 14.0 km/h 37.0 km/h 50% 0.0 mm
13:22 17.1 °C 6.9 °C 1022.9 hPa East 14.0 km/h 37.0 km/h 51% 0.0 mm
13:26 17.2 °C 7.3 °C 1022.9 hPa NNE 14.0 km/h 37.0 km/h 52% 0.0 mm
13:31 17.4 °C 7.2 °C 1022.9 hPa ENE 14.0 km/h 37.0 km/h 51% 0.0 mm
13:36 17.8 °C 7.2 °C 1022.6 hPa ENE 12.2 km/h 37.0 km/h 50% 0.0 mm
13:41 18.0 °C 7.1 °C 1022.6 hPa ESE 12.2 km/h 37.0 km/h 49% 0.0 mm
13:47 18.2 °C 7.3 °C 1022.6 hPa NNE 11.1 km/h 37.0 km/h 49% 0.0 mm
13:51 18.0 °C 7.1 °C 1022.6 hPa ENE 11.1 km/h 37.0 km/h 49% 0.0 mm
13:56 17.9 °C 7.0 °C 1022.6 hPa ENE 13.7 km/h 37.0 km/h 49% 0.0 mm
14:02 18.1 °C 7.2 °C 1022.6 hPa NNW 13.7 km/h 37.0 km/h 49% 0.0 mm
14:07 17.8 °C 7.5 °C 1022.2 hPa NNE 15.6 km/h 37.0 km/h 51% 0.0 mm
14:12 17.6 °C 7.3 °C 1022.2 hPa NE 15.6 km/h 37.0 km/h 51% 0.0 mm
14:17 17.6 °C 7.6 °C 1022.2 hPa NNW 13.7 km/h 37.0 km/h 52% 0.0 mm FEW
14:22 17.6 °C 7.1 °C 1021.9 hPa ENE 13.7 km/h 37.0 km/h 50% 0.0 mm
14:27 17.4 °C 6.9 °C 1021.9 hPa NNE 14.8 km/h 37.0 km/h 50% 0.0 mm
14:32 17.6 °C 7.6 °C 1021.9 hPa East 14.8 km/h 37.0 km/h 52% 0.0 mm
14:37 17.7 °C 7.2 °C 1021.9 hPa NNE 10.3 km/h 37.0 km/h 50% 0.0 mm
14:42 17.7 °C 7.4 °C 1021.9 hPa NNW 10.3 km/h 37.0 km/h 51% 0.0 mm
14:47 17.8 °C 7.5 °C 1021.9 hPa NE 11.9 km/h 37.0 km/h 51% 0.0 mm CLR
14:52 17.8 °C 7.8 °C 1021.9 hPa ENE 11.9 km/h 37.0 km/h 52% 0.0 mm CLR
14:57 17.7 °C 7.7 °C 1021.9 hPa NNE 13.7 km/h 37.0 km/h 52% 0.0 mm CLR
15:02 17.7 °C 7.7 °C 1021.9 hPa NE 13.7 km/h 37.0 km/h 52% 0.0 mm CLR
15:07 18.0 °C 7.7 °C 1021.6 hPa NE 12.2 km/h 37.0 km/h 51% 0.0 mm CLR
15:12 17.9 °C 7.6 °C 1021.6 hPa North 12.2 km/h 37.0 km/h 51% 0.0 mm CLR
15:14 17.9 °C 7.3 °C 1021.6 hPa NNE 12.2 km/h 37.0 km/h 50% 0.0 mm CLR
15:18 17.8 °C 7.5 °C 1021.6 hPa NE 13.7 km/h 37.0 km/h 51% 0.0 mm CLR
15:23 17.7 °C 7.7 °C 1021.6 hPa NE 13.7 km/h 37.0 km/h 52% 0.0 mm CLR
15:28 17.7 °C 7.7 °C 1021.6 hPa NNE 12.2 km/h 37.0 km/h 52% 0.0 mm CLR
15:34 17.6 °C 8.2 °C 1021.6 hPa NE 12.2 km/h 37.0 km/h 54% 0.0 mm CLR
15:38 17.7 °C 7.4 °C 1021.2 hPa NE 12.2 km/h 37.0 km/h 51% 0.0 mm CLR
15:44 17.6 °C 8.2 °C 1021.2 hPa North 12.2 km/h 37.0 km/h 54% 0.0 mm CLR
15:49 17.8 °C 7.5 °C 1021.2 hPa NE 13.7 km/h 37.0 km/h 51% 0.0 mm CLR
15:53 17.6 °C 7.6 °C 1021.2 hPa East 13.7 km/h 37.0 km/h 52% 0.0 mm CLR
15:59 17.6 °C 8.2 °C 1021.2 hPa NE 17.2 km/h 37.0 km/h 54% 0.0 mm CLR
16:04 17.7 °C 8.3 °C 1021.2 hPa ENE 17.2 km/h 37.0 km/h 54% 0.0 mm CLR
16:09 17.7 °C 8.0 °C 1020.9 hPa North 13.7 km/h 37.0 km/h 53% 0.0 mm CLR
16:14 17.6 °C 7.9 °C 1020.9 hPa NW 13.7 km/h 37.0 km/h 53% 0.0 mm CLR
16:19 17.6 °C 7.3 °C 1020.9 hPa NNE 11.9 km/h 37.0 km/h 51% 0.0 mm CLR
16:24 17.7 °C 7.4 °C 1020.5 hPa NE 11.9 km/h 37.0 km/h 51% 0.0 mm CLR
16:29 17.9 °C 7.6 °C 1020.5 hPa East 14.0 km/h 37.0 km/h 51% 0.0 mm CLR
16:34 17.7 °C 7.2 °C 1020.5 hPa NE 14.0 km/h 37.0 km/h 50% 0.0 mm CLR
16:39 17.4 °C 7.2 °C 1020.5 hPa NE 13.7 km/h 37.0 km/h 51% 0.0 mm CLR
16:44 17.4 °C 7.4 °C 1020.5 hPa NNE 13.7 km/h 37.0 km/h 52% 0.0 mm CLR
16:49 17.8 °C 7.5 °C 1020.5 hPa North 10.3 km/h 37.0 km/h 51% 0.0 mm CLR
16:54 17.7 °C 7.2 °C 1020.2 hPa East 10.3 km/h 37.0 km/h 50% 0.0 mm CLR
16:59 17.7 °C 6.8 °C 1020.2 hPa ENE 12.2 km/h 37.0 km/h 49% 0.0 mm CLR
17:04 17.7 °C 7.2 °C 1020.2 hPa East 12.2 km/h 37.0 km/h 50% 0.0 mm CLR
17:09 17.9 °C 7.0 °C 1019.9 hPa ENE 9.5 km/h 37.0 km/h 49% 0.0 mm CLR
17:14 17.9 °C 7.3 °C 1019.9 hPa NE 9.5 km/h 37.0 km/h 50% 0.0 mm CLR
17:19 17.8 °C 7.5 °C 1019.9 hPa ENE 12.2 km/h 37.0 km/h 51% 0.0 mm CLR
17:24 17.7 °C 7.4 °C 1019.9 hPa NE 12.2 km/h 37.0 km/h 51% 0.0 mm CLR
17:29 17.7 °C 7.7 °C 1019.9 hPa NE 13.0 km/h 37.0 km/h 52% 0.0 mm CLR
17:34 17.9 °C 7.6 °C 1019.9 hPa NNE 13.0 km/h 37.0 km/h 51% 0.0 mm CLR
17:39 18.1 °C 7.5 °C 1019.9 hPa NNE 10.3 km/h 37.0 km/h 50% 0.0 mm CLR
17:44 18.1 °C 8.1 °C 1019.9 hPa ENE 10.3 km/h 37.0 km/h 52% 0.0 mm CLR
17:49 18.1 °C 7.8 °C 1019.9 hPa ENE 10.3 km/h 37.0 km/h 51% 0.0 mm CLR
17:54 18.2 °C 7.9 °C 1019.5 hPa NE 10.3 km/h 37.0 km/h 51% 0.0 mm CLR
17:59 18.2 °C 7.9 °C 1019.5 hPa NE 10.0 km/h 37.0 km/h 51% 0.0 mm CLR
18:04 18.2 °C 7.9 °C 1019.5 hPa NNE 10.0 km/h 37.0 km/h 51% 0.0 mm CLR
18:09 18.1 °C 7.5 °C 1019.5 hPa ENE 8.7 km/h 37.0 km/h 50% 0.0 mm CLR
18:14 18.1 °C 7.2 °C 1019.5 hPa NE 8.7 km/h 37.0 km/h 49% 0.0 mm CLR
18:19 18.2 °C 7.6 °C 1019.5 hPa NE 11.9 km/h 37.0 km/h 50% 0.0 mm CLR
18:24 18.1 °C 7.5 °C 1019.5 hPa North 11.9 km/h 37.0 km/h 50% 0.0 mm CLR
18:29 18.1 °C 7.8 °C 1019.5 hPa North 13.0 km/h 37.0 km/h 51% 0.0 mm CLR
18:34 18.3 °C 8.0 °C 1019.5 hPa NNE 13.0 km/h 37.0 km/h 51% 0.0 mm CLR
18:39 18.1 °C 7.5 °C 1019.2 hPa NE 10.3 km/h 37.0 km/h 50% 0.0 mm CLR
18:44 17.9 °C 7.9 °C 1019.2 hPa North 10.3 km/h 37.0 km/h 52% 0.0 mm CLR
18:49 17.9 °C 8.2 °C 1019.2 hPa ENE 16.1 km/h 37.0 km/h 53% 0.0 mm CLR
18:54 17.7 °C 8.0 °C 1018.8 hPa NE 16.1 km/h 37.0 km/h 53% 0.0 mm CLR
18:59 17.5 °C 8.1 °C 1018.8 hPa NE 15.6 km/h 37.0 km/h 54% 0.0 mm CLR
19:04 17.4 °C 8.0 °C 1018.8 hPa NE 15.6 km/h 37.0 km/h 54% 0.0 mm CLR
19:09 17.3 °C 8.2 °C 1018.8 hPa NNE 15.6 km/h 37.0 km/h 55% 0.0 mm CLR
19:15 17.4 °C 8.5 °C 1018.8 hPa NE 15.6 km/h 37.0 km/h 56% 0.0 mm CLR
19:20 17.4 °C 8.5 °C 1018.8 hPa NNE 11.3 km/h 22.5 km/h 56% 0.0 mm CLR
19:25 17.3 °C 8.4 °C 1018.8 hPa NNE 11.9 km/h 37.0 km/h 56% 0.0 mm CLR
19:30 17.4 °C 8.3 °C 1018.8 hPa East 13.7 km/h 37.0 km/h 55% 0.0 mm CLR
19:34 17.3 °C 8.2 °C 1018.8 hPa NE 13.7 km/h 37.0 km/h 55% 0.0 mm CLR
19:40 17.3 °C 8.4 °C 1018.8 hPa ENE 13.0 km/h 37.0 km/h 56% 0.0 mm CLR
19:45 17.3 °C 8.2 °C 1018.8 hPa NE 13.0 km/h 37.0 km/h 55% 0.0 mm CLR
19:50 17.2 °C 8.3 °C 1018.8 hPa NE 12.9 km/h 24.1 km/h 56% 0.0 mm CLR
19:55 16.9 °C 8.3 °C 1018.8 hPa NE 12.9 km/h 25.7 km/h 57% 0.0 mm CLR
20:00 16.8 °C 8.2 °C 1018.8 hPa NNE 14.0 km/h 37.0 km/h 57% 0.0 mm CLR
20:05 16.7 °C 8.9 °C 1018.8 hPa NE 14.0 km/h 37.0 km/h 60% 0.0 mm CLR
20:10 16.6 °C 8.6 °C 1018.8 hPa NE 11.1 km/h 37.0 km/h 59% 0.0 mm CLR
20:15 16.6 °C 8.8 °C 1018.8 hPa NE 11.1 km/h 37.0 km/h 60% 0.0 mm CLR
20:20 16.4 °C 8.6 °C 1018.8 hPa NE 13.7 km/h 37.0 km/h 60% 0.0 mm CLR
20:25 16.4 °C 8.4 °C 1019.2 hPa NNE 13.7 km/h 37.0 km/h 59% 0.0 mm CLR
20:30 16.3 °C 8.5 °C 1019.2 hPa NNE 10.0 km/h 37.0 km/h 60% 0.0 mm CLR
20:35 16.2 °C 8.7 °C 1019.2 hPa NE 10.0 km/h 37.0 km/h 61% 0.0 mm CLR
20:40 16.1 °C 9.1 °C 1019.2 hPa East 10.3 km/h 37.0 km/h 63% 0.0 mm CLR
20:45 16.0 °C 9.2 °C 1019.2 hPa East 10.3 km/h 37.0 km/h 64% 0.0 mm CLR
20:50 15.9 °C 9.1 °C 1019.2 hPa NE 9.5 km/h 37.0 km/h 64% 0.0 mm CLR
20:55 15.8 °C 9.2 °C 1019.2 hPa ENE 9.5 km/h 37.0 km/h 65% 0.0 mm CLR
21:00 15.7 °C 9.4 °C 1019.2 hPa NE 8.7 km/h 37.0 km/h 66% 0.0 mm CLR
21:05 15.6 °C 9.5 °C 1019.2 hPa NNE 8.7 km/h 37.0 km/h 67% 0.0 mm CLR
21:10 15.4 °C 9.3 °C 1019.2 hPa ENE 8.4 km/h 37.0 km/h 67% 0.0 mm CLR
21:15 15.4 °C 9.5 °C 1019.2 hPa East 8.4 km/h 37.0 km/h 68% 0.0 mm CLR
21:20 15.3 °C 9.4 °C 1019.2 hPa East 8.7 km/h 37.0 km/h 68% 0.0 mm CLR
21:25 15.2 °C 9.3 °C 1019.2 hPa NE 8.7 km/h 37.0 km/h 68% 0.0 mm FEW
21:30 15.1 °C 9.4 °C 1019.2 hPa ENE 8.4 km/h 37.0 km/h 69% 0.0 mm FEW
21:35 15.1 °C 9.4 °C 1019.2 hPa NE 8.4 km/h 37.0 km/h 69% 0.0 mm FEW
21:40 14.9 °C 9.3 °C 1019.2 hPa NE 8.0 km/h 9.7 km/h 69% 0.0 mm FEW
21:45 14.8 °C 9.4 °C 1019.2 hPa NE 8.4 km/h 37.0 km/h 70% 0.0 mm CLR
21:50 14.8 °C 9.4 °C 1019.2 hPa NE 8.0 km/h 12.9 km/h 70% 0.0 mm FEW
21:55 14.8 °C 9.4 °C 1019.5 hPa NNE 6.9 km/h 37.0 km/h 70% 0.0 mm CLR
22:00 14.7 °C 9.3 °C 1019.5 hPa NNE 3.2 km/h 4.8 km/h 70% 0.0 mm CLR
22:05 14.7 °C 9.3 °C 1019.5 hPa NNE 3.2 km/h 4.8 km/h 70% 0.0 mm FEW
22:10 14.7 °C 9.3 °C 1019.5 hPa North 2.9 km/h 37.0 km/h 70% 0.0 mm CLR
22:15 14.6 °C 9.2 °C 1019.5 hPa NNW 2.9 km/h 37.0 km/h 70% 0.0 mm FEW
22:20 14.6 °C 9.4 °C 1019.5 hPa North 5.8 km/h 37.0 km/h 71% 0.0 mm FEW
22:25 14.4 °C 9.2 °C 1019.5 hPa NNW 5.8 km/h 37.0 km/h 71% 0.0 mm FEW
22:30 14.4 °C 9.2 °C 1019.5 hPa NNE 3.9 km/h 37.0 km/h 71% 0.0 mm FEW
22:35 14.3 °C 9.3 °C 1019.5 hPa NNE 3.9 km/h 37.0 km/h 72% 0.0 mm FEW
22:40 14.3 °C 9.3 °C 1019.9 hPa NNE 3.9 km/h 37.0 km/h 72% 0.0 mm FEW
22:45 14.2 °C 9.2 °C 1019.9 hPa North 3.9 km/h 37.0 km/h 72% 0.0 mm CLR
22:50 14.2 °C 9.4 °C 1019.5 hPa NNE 5.8 km/h 37.0 km/h 73% 0.0 mm FEW
22:55 14.1 °C 9.3 °C 1019.5 hPa NNE 5.8 km/h 37.0 km/h 73% 0.0 mm CLR
23:00 14.0 °C 9.2 °C 1019.5 hPa NNE 6.4 km/h 37.0 km/h 73% 0.0 mm CLR
23:05 13.9 °C 9.3 °C 1019.5 hPa NNE 6.4 km/h 37.0 km/h 74% 0.0 mm CLR
23:10 13.9 °C 9.3 °C 1019.5 hPa NE 3.9 km/h 37.0 km/h 74% 0.0 mm FEW
23:15 13.9 °C 9.3 °C 1019.5 hPa NNE 3.9 km/h 37.0 km/h 74% 0.0 mm CLR
23:20 13.9 °C 9.3 °C 1019.5 hPa North 5.0 km/h 37.0 km/h 74% 0.0 mm FEW
23:25 13.8 °C 9.2 °C 1019.5 hPa NE 5.0 km/h 37.0 km/h 74% 0.0 mm CLR
23:30 13.8 °C 9.2 °C 1019.5 hPa NE 3.2 km/h 37.0 km/h 74% 0.0 mm FEW
23:35 13.8 °C 9.2 °C 1019.5 hPa NNE 3.2 km/h 37.0 km/h 74% 0.0 mm CLR
23:40 13.7 °C 9.3 °C 1019.5 hPa NNE 3.2 km/h 37.0 km/h 75% 0.0 mm FEW
23:41 13.7 °C 9.3 °C 1019.5 hPa NNE 3.2 km/h 37.0 km/h 75% 0.0 mm CLR
23:46 13.7 °C 9.3 °C 1019.5 hPa NNE 3.2 km/h 37.0 km/h 75% 0.0 mm CLR
23:51 13.7 °C 9.3 °C 1019.5 hPa WNW 2.3 km/h 37.0 km/h 75% 0.0 mm CLR
23:56 13.7 °C 9.3 °C 1019.5 hPa WNW 2.3 km/h 37.0 km/h 75% 0.0 mm CLR
Murcia-Puente Tocinos, España
Compliments of Weather Underground - 2.75 mb

La estación de MeteoMurcia.com, publica sus datos en los siguientes proyectos:

Meteoclimatic www.awekas.at

W3Counter
Web Analytics